SCP
0 0 0 0 0 0 0 0 0 0 0 0 0 0 0 0 0 0 0 0 0 0 0 1 1 1 0 0 0 0 0 0 0 0 0 0 0 0 0 0 0 0 0 0 0 0 0 0 0
0 0 0 0 0 0 0 0 0 0 0 -0 0 0 0 0 0 0 0 0 0 0 0 1 1 1 1 1 1 1 1 0 0 0 0 0 0 0 0 0 0 0 0 0 0 0 0 0 0
0 0 0 0 0 0 0 0 0 0 0 0 0 0 0 0 0 0 0 0 0 0 0 0 1 1 1 1 1 1 1 1 0 0 0 0 0 0 0 0 0 0 0 0 0 0 0 0 0
0 0 0 0 0 0 0 0 0 0 0 0 0 0 0 0 0 0 0 0 0 0 0 1 1 1 1 1 1 1 0 0 0 0 0 0 0 0 0 0 0 0 0 0 0 0 0 0 0
0 0 0 0 0 0 0 0 0 0 0 0 0 0 0 0 0 0 0 0 0 0 0 1 1 1 1 1 1 1 1 1 1 0 0 0 0 0 0 0 0 0 0 0 0 0 0 0 0
0 0 0 0 0 0 0 0 0 0 0 0 0 0 0 0 0 0 0 0 0 0 0 1 1 1 1 1 1 1 1 1 1 1 1 0 0 0 0 0 0 0 0 0 0 0 0 0 0
0 0 0 0 0 0 0 0 0 0 0 0 0 0 0 0 0 0 0 0 0 0 0 1 1 2 1 1 1 1 1 1 1 1 1 1 0 0 0 0 0 0 0 0 0 0 0 0 0
0 0 0 0 0 0 0 0 0 0 0 0 0 0 0 0 0 0 0 0 0 0 0 1 1 2 2 1 2 2 2 1 1 1 1 0 0 0 0 0 0 0 0 0 0 0 0 0 0
0 0 0 0 0 0 0 0 0 0 0 0 0 0 0 0 0 0 0 0 0 0 0 1 1 2 1 2 2 2 1 1 1 0 0 0 0 0 0 0 0 0 0 0 0 0 0 0 0
0 0 0 0 0 0 0 0 0 0 0 0 0 0 0 0 0 0 0 0 0 0 0 1 1 1 1 1 1 1 1 0 0 0 0 0 0 0 0 0 0 0 0 0 0 0 0 0 0
0 0 0 0 0 0 0 0 0 0 0 0 0 0 0 0 0 0 0 0 0 0 0 0 0 0 0 0 0 0 0 0 0 0 0 0 0 0 0 0 0 0 0 0 0 0 0 0 0
0 0 0 0 0 0 0 0 0 0 0 0 0 0 0 0 0 0 0 0 0 0 0 0 0 0 0 0 0 0 0 0 0 0 0 0 0 0 0 0 0 0 0 0 0 0 0 0 0
0 0 0 0 0 0 0 0 0 0 0 0 0 0 0 0 0 0 0 0 0 0 0 0 0 0 0 0 0 0 0 0 0 0 0 0 0 0 0 0 0 0 0 0 0 0 0 0 0
0 0 0 0 0 0 0 0 0 -0 -0 0 0 0 0 0 0 0 0 0 0 0 0 0 0 0 0 0 0 0 0 0 0 0 0 0 0 0 0 0 0 0 0 0 0 0 0 0 0
0 0 0 0 0 0 0 0 0 0 0 0 0 0 0 0 0 0 -0 -0 -0 0 0 0 0 0 0 0 0 0 0 0 0 0 0 0 0 0 0 0 0 0 0 0 0 0 0 0 0
0 0 0 0 0 0 0 0 -0 0 0 0 0 0 0 0 0 0 -0 -0 0 0 0 0 0 0 0 0 0 0 0 0 0 0 0 0 0 0 0 0 0 0 0 0 0 0 0 0 0
0 0 0 0 0 0 0 0 -0 0 0 0 0 0 0 0 0 0 0 0 0 0 0 0 0 0 0 0 0 0 0 0 0 0 0 0 0 0 0 0 0 0 0 0 0 0 0 0 0
0 0 0 0 0 0 0 0 -0 0 0 0 0 0 0 0 0 0 0 0 0 0 0 0 0 0 0 0 0 0 0 0 0 0 0 0 0 0 0 0 0 0 0 0 0 0 0 0 0
0 0 0 0 0 0 0 0 -0 0 0 0 0 0 0 0 0 0 0 0 0 0 0 0 0 0 0 0 0 0 0 0 0 0 0 0 0 0 0 0 0 0 0 0 0 0 0 0 0
0 0 0 0 0 0 0 -0 -0 0 0 0 0 0 0 0 0 0 0 0 0 0 0 0 0 0 0 0 0 0 0 0 0 0 0 0 0 0 0 0 0 0 0 0 0 0 0 0 0
0 0 0 0 0 0 -0 -0 -0 0 0 0 0 0 0 0 0 0 0 0 0 0 0 0 0 0 0 0 0 0 0 0 0 0 0 0 0 0 0 0 0 0 0 0 0 -0 0 0 0
0 0 0 0 0 0 0 -0 -0 -0 0 0 0 0 -0 0 0 0 0 0 0 0 0 0 0 0 0 0 0 0 0 0 0 0 0 0 0 0 0 0 0 0 0 -0 0 0 0 0 0
0 0 0 0 0 -0 -0 -0 -0 -0 0 0 0 0 -0 0 0 0 0 0 0 0 0 0 0 0 0 0 0 0 0 0 0 0 0 0 0 0 0 0 0 -0 0 0 0 0 0 0 0
0 0 0 0 -0 -0 -0 -0 -0 0 0 0 0 0 0 0 0 0 0 0 0 0 0 0 0 0 0 0 0 0 0 0 0 0 0 0 0 0 -0 0 0 0 0 0 0 0 0 0 0
0 0 0 0 0 -0 0 0 -0 0 -0 0 0 0 0 0 0 -0 -0 0 0 0 0 0 0 0 0 0 0 0 0 0 0 0 0 0 0 -0 -0 -0 0 0 0 0 0 0 0 0 0
0 0 0 -0 -0 -0 0 -0 -0 -0 0 0 0 0 0 0 0 0 0 0 0 0 0 0 0 0 0 0 0 0 0 0 0 0 0 0 -0 -0 -0 -0 0 0 0 0 0 0 0 0 0
0 0 0 0 0 0 0 0 0 -0 0 0 0 0 0 -0 0 0 0 0 0 0 0 0 0 0 0 0 0 0 0 0 0 0 0 0 -0 -0 -0 0 0 0 0 0 0 0 0 0 0
0 0 0 0 0 0 0 0 0 0 0 0 0 0 -0 -0 0 0 0 -0 0 0 0 0 0 0 0 0 0 0 0 0 0 0 0 0 0 -0 0 0 0 0 0 0 0 0 0 0 0
0 0 0 0 0 0 0 0 0 0 0 0 -0 -0 -0 -0 0 -0 -0 0 0 0 0 0 0 0 0 0 0 0 0 0 0 0 0 0 0 0 0 0 0 0 0 0 0 0 0 0 0
0 0 0 0 0 0 0 0 0 0 0 0 0 0 -0 -0 0 -0 -0 -0 0 0 0 0 0 0 0 0 0 0 0 0 0 0 0 0 -0 0 0 0 0 0 0 0 0 0 0 0 0
Wind_Speed_500mb
20 22 20 7 5 7 7 12 5 9 6 5 4 11 15 13 14 10 12 30 24 33 27 36 41 33 26 24 23 23 22 22 22 21 21 21 21 21 18 22 26 24 21 20 20 23 23 25 27
20 19 10 6 6 1 10 8 11 10 12 28 13 12 4 9 15 6 27 27 26 30 30 30 36 33 28 25 25 25 24 24 25 26 26 25 24 24 22 26 30 31 28 23 21 23 25 25 26
20 13 5 6 5 9 9 10 10 15 55 19 7 13 5 7 14 9 19 24 28 31 27 30 34 33 30 26 26 24 25 27 28 31 31 31 26 27 34 28 34 32 30 28 27 26 25 25 27
14 5 7 6 13 13 11 12 11 23 47 5 15 7 10 17 9 16 23 26 27 23 24 30 31 30 30 26 24 22 24 26 30 33 32 30 33 35 39 36 37 35 36 36 34 31 35 31 30
16 3 3 4 11 12 14 29 30 14 12 29 15 10 10 17 22 19 23 28 27 23 25 27 30 31 26 21 18 19 19 21 26 30 28 35 37 39 40 39 38 37 40 38 37 36 36 32 37
7 4 2 8 10 10 12 35 21 10 11 26 7 6 14 23 31 28 28 27 25 18 23 31 34 34 29 23 19 19 18 19 26 26 31 33 35 39 44 45 45 45 43 44 43 42 40 41 42
10 7 8 8 10 12 12 4 10 2 11 14 19 6 13 27 29 34 31 34 30 28 27 35 36 36 35 30 22 21 20 24 28 27 28 29 31 38 44 45 48 51 52 48 45 47 46 45 44
12 9 6 11 8 17 14 8 14 5 13 25 9 8 22 36 26 38 39 45 38 37 37 40 40 40 37 34 27 23 24 28 31 29 28 29 33 32 34 36 33 33 38 40 43 47 46 49 48
16 4 12 15 13 16 9 4 7 5 16 17 33 44 53 63 53 45 52 55 51 51 48 47 45 43 38 35 30 27 28 32 32 30 29 31 30 28 25 22 26 27 30 31 28 34 39 47 50
16 11 22 22 16 13 8 3 33 11 33 31 52 56 52 60 49 52 65 67 64 60 57 55 50 48 43 37 33 30 32 32 31 31 29 30 27 27 23 23 22 22 25 27 32 35 36 35 44
17 27 39 28 51 15 16 30 22 19 26 50 42 73 76 62 49 56 65 70 64 60 59 57 54 51 47 38 33 31 33 29 29 27 26 27 27 26 23 21 20 20 20 25 29 35 30 36 40
9 36 58 56 46 28 23 31 44 47 60 69 70 78 81 69 55 59 69 74 69 66 63 58 55 54 49 39 33 31 30 27 23 19 20 24 25 23 23 23 20 21 21 24 23 24 29 30 35
17 25 39 51 53 55 46 38 41 59 92 78 73 78 80 71 61 69 72 69 71 70 69 62 58 55 48 40 34 29 25 21 18 17 19 21 23 25 27 27 26 21 22 26 24 23 24 27 30
18 41 49 40 59 65 45 39 39 73 75 70 72 76 81 77 68 64 75 78 80 74 76 66 60 53 47 39 32 24 18 15 17 19 21 23 24 25 28 29 29 25 23 23 23 25 24 26 30
21 12 16 27 40 20 42 24 37 92 64 61 72 80 82 77 65 67 77 74 75 85 78 67 62 56 48 38 28 20 13 15 19 23 25 28 30 28 27 28 28 28 26 24 21 21 24 26 31
6 6 6 9 11 15 24 23 41 66 57 70 67 65 69 73 72 72 71 77 83 89 79 65 61 56 45 36 25 17 14 14 18 23 26 30 32 30 27 27 25 26 27 23 23 23 26 25 30
4 22 20 13 17 9 15 20 34 42 25 47 63 72 69 74 74 76 70 73 89 87 74 61 61 54 43 32 25 20 17 15 20 24 26 30 30 27 26 25 21 25 25 23 25 23 26 27 27
13 10 12 19 4 8 19 26 38 69 38 50 56 70 81 80 85 72 60 71 82 74 66 57 57 49 39 32 27 22 14 17 24 27 29 28 26 24 24 23 22 25 23 22 25 24 26 26 22
10 25 32 9 6 13 19 16 30 48 26 37 57 68 80 83 73 53 47 52 64 61 59 62 58 46 40 32 25 20 14 20 23 27 30 24 22 24 25 23 21 24 22 22 23 25 29 29 23
25 27 32 16 7 12 20 26 32 31 35 40 58 73 73 61 45 41 35 44 60 61 68 64 49 40 33 25 20 15 16 21 25 29 25 20 18 21 25 22 20 18 17 21 23 27 33 31 27
33 40 32 20 9 11 13 23 27 24 27 38 51 45 44 46 37 33 37 47 55 65 71 55 41 35 27 21 15 11 14 19 23 21 13 13 18 18 17 17 17 14 14 13 14 20 32 33 30
39 32 30 22 7 13 10 12 20 18 33 15 42 45 45 37 37 34 37 40 53 68 59 44 38 32 23 16 11 9 13 18 17 16 10 12 13 7 4 9 11 10 9 11 15 19 25 28 29
26 20 18 17 14 4 7 8 11 9 19 27 22 50 48 38 35 29 34 43 60 60 48 40 35 27 17 13 10 6 14 16 16 14 12 10 9 3 6 8 10 9 8 10 15 21 26 24 22
14 9 8 7 2 16 25 14 9 12 20 13 11 18 27 21 24 30 36 51 61 51 44 39 33 21 13 12 9 5 14 12 15 13 14 11 9 8 10 12 9 8 7 11 15 21 22 22 19
15 15 2 6 1 10 12 15 26 19 17 18 23 31 11 23 35 40 54 67 61 53 44 38 30 18 13 12 8 5 12 10 15 17 16 8 3 13 15 14 12 10 12 13 13 18 20 20 20
31 20 13 11 7 10 14 15 15 25 29 42 45 32 22 35 39 47 62 68 58 49 42 34 27 18 14 14 8 2 9 11 14 16 12 2 9 15 19 18 11 12 13 11 9 14 20 16 20
16 21 19 4 3 1 7 15 15 11 15 7 1 17 34 40 44 52 65 62 54 45 38 33 24 20 17 13 9 3 6 11 12 15 13 6 12 17 22 19 12 10 10 8 8 13 15 11 17
22 22 14 12 13 8 10 10 10 6 14 5 8 16 34 42 46 53 64 59 49 39 34 32 22 17 19 12 9 5 4 11 11 12 13 8 12 19 21 20 15 9 8 7 9 9 9 10 17
10 13 6 14 10 10 2 12 14 17 15 16 17 35 48 51 53 57 63 57 45 38 38 33 26 23 20 14 12 4 3 9 8 7 5 6 11 17 18 20 16 9 8 8 8 10 11 11 13
34 20 14 15 19 7 8 11 9 19 11 12 18 33 36 43 52 57 63 58 49 43 41 34 29 24 18 15 11 8 4 6 4 5 6 6 14 17 16 14 15 13 9 10 11 13 14 12 13
Wind_Direction_500mb
144 143 138 138 43 64 254 254 258 279 279 331 159 173 193 166 166 209 197 168 184 180 193 198 206 209 216 229 235 245 263 272 278 277 279 282 278 277 263 283 288 284 267 252 257 268 271 262 255
143 147 128 105 104 8 261 247 239 240 286 315 259 219 207 245 217 231 162 185 176 179 185 194 203 208 218 225 231 246 262 271 269 267 275 280 268 261 260 284 284 284 274 270 253 248 262 267 261
152 150 115 106 145 208 232 220 233 289 317 272 219 240 231 232 224 220 204 192 182 178 189 197 202 209 216 222 232 252 273 275 275 273 274 275 257 263 259 277 283 277 267 266 270 272 266 267 270
159 172 78 103 239 258 234 268 305 320 329 232 217 245 233 228 228 222 200 192 183 177 187 199 203 207 214 221 236 261 274 281 283 280 279 268 266 266 265 278 275 265 266 264 258 251 256 262 264
169 119 75 252 250 258 255 266 286 287 282 302 231 247 235 245 233 228 215 198 191 190 193 202 205 211 210 218 239 259 275 289 294 287 273 266 268 270 267 270 264 266 264 261 259 259 259 252 257
135 110 56 235 230 244 258 266 267 255 286 328 237 209 257 257 238 230 221 205 195 210 202 207 207 213 215 217 234 252 259 290 303 293 273 271 269 269 267 265 263 264 258 258 261 254 254 254 251
148 109 232 256 260 275 224 269 201 271 331 333 296 238 278 286 253 228 225 205 207 211 219 214 213 214 217 224 239 253 268 288 301 291 274 265 266 272 273 271 265 258 254 256 256 255 252 251 250
192 123 259 243 216 263 201 204 178 100 302 323 342 276 287 305 286 248 220 207 213 217 223 223 217 215 220 225 240 255 277 290 296 289 275 272 277 275 278 272 268 265 263 251 253 257 257 252 249
187 130 239 239 187 245 173 329 278 295 284 294 288 290 297 298 289 236 208 207 215 220 223 224 221 217 221 227 242 257 277 290 291 282 275 274 278 280 281 276 272 265 263 258 256 260 258 246 246
184 191 223 216 208 247 256 224 300 309 304 285 294 302 304 308 271 231 211 214 219 223 224 223 222 220 219 227 240 259 280 290 284 278 274 270 273 287 279 287 278 271 265 258 249 258 256 243 243
204 225 231 264 245 267 290 296 304 280 285 285 291 301 305 301 276 236 232 227 236 231 226 226 221 220 223 229 242 263 278 277 272 273 276 273 273 287 275 283 276 273 269 262 258 258 260 242 239
218 233 238 248 260 274 265 288 284 287 273 282 291 293 295 290 274 250 240 234 233 232 232 228 221 221 224 230 243 261 272 271 275 278 280 276 278 276 271 272 275 269 270 271 272 264 255 246 237
230 240 247 254 268 269 275 260 267 280 280 285 289 291 292 289 276 261 254 245 236 235 233 229 223 225 225 234 243 265 269 276 279 281 286 288 283 275 268 268 265 273 272 265 261 262 255 244 231
201 237 253 268 264 263 270 276 276 272 274 281 287 290 294 293 286 270 247 242 237 238 236 230 226 227 227 232 249 261 262 278 279 289 286 283 286 281 271 266 265 260 272 265 258 260 250 239 230
243 233 263 244 254 253 266 270 255 268 281 282 282 287 288 289 284 263 256 252 247 238 233 231 228 227 224 232 247 249 257 281 289 291 287 281 281 281 274 269 261 255 262 261 256 258 245 239 225
192 178 241 241 206 250 181 267 269 272 271 274 280 287 288 289 286 281 270 255 245 238 232 229 227 225 220 232 240 234 250 276 302 296 291 283 278 275 274 268 263 253 255 257 256 262 242 236 224
255 254 250 292 231 239 177 277 267 280 279 276 280 286 287 289 290 295 279 260 246 237 231 227 224 216 219 225 225 228 244 282 304 306 298 285 273 274 273 274 267 247 248 254 257 255 238 230 226
203 236 235 235 260 227 258 258 277 277 270 267 281 286 287 291 292 300 287 261 244 236 229 225 210 205 213 218 219 229 258 289 302 310 305 284 271 275 270 276 262 241 248 254 254 248 231 221 220
206 229 242 248 202 243 244 256 265 281 267 269 278 280 290 293 294 292 285 260 242 232 218 205 198 204 211 215 221 232 269 299 307 309 304 284 270 275 276 275 256 238 251 258 249 238 221 208 206
211 237 248 264 198 228 271 273 273 278 273 264 273 279 279 285 284 283 271 241 234 220 200 194 196 208 211 210 226 250 281 308 312 314 304 282 279 285 274 265 240 241 251 254 247 233 205 197 196
214 221 236 238 307 262 311 291 279 280 278 270 272 277 290 275 272 269 238 223 214 198 189 186 196 204 201 208 229 251 294 318 319 320 307 293 295 290 270 234 223 237 247 251 223 202 189 195 194
222 215 236 253 255 255 132 284 290 300 296 278 285 296 287 285 272 242 228 210 195 184 178 183 194 194 196 211 220 259 314 337 334 333 323 316 316 302 196 190 210 216 218 214 190 181 184 191 192
224 178 211 225 231 208 240 278 266 268 279 281 271 286 279 273 261 240 210 191 176 174 175 183 187 185 194 209 221 277 338 334 338 332 325 305 311 215 205 186 178 183 196 181 174 176 179 187 204
169 143 80 31 140 258 255 204 245 231 233 261 266 275 297 248 204 194 182 169 166 171 177 181 183 178 193 206 211 303 342 340 338 339 327 297 289 205 178 160 148 152 171 171 178 178 184 187 200
131 98 258 335 242 225 192 187 244 252 235 233 256 275 293 195 171 171 164 166 169 175 180 181 179 182 191 193 202 308 344 344 337 339 331 300 205 184 171 153 135 133 132 127 144 170 182 201 208
184 161 155 199 214 249 161 204 245 224 232 246 255 260 198 189 169 166 168 169 172 180 179 179 178 183 185 176 196 306 352 354 340 343 351 1 160 171 168 157 144 140 115 116 140 177 184 187 211
176 201 175 63 173 312 225 276 305 227 261 280 330 187 183 179 172 168 170 172 176 179 179 178 176 178 175 174 202 201 18 359 356 11 21 87 143 162 168 161 159 152 137 118 132 165 178 213 198
174 145 178 194 196 231 274 272 225 220 227 291 217 194 185 175 172 170 173 175 178 178 176 174 176 176 171 182 176 123 341 357 16 37 50 81 129 156 162 168 167 155 149 120 136 155 179 182 183
152 167 145 164 159 163 298 262 221 224 216 226 215 184 189 175 173 171 173 177 176 174 178 178 179 176 175 179 174 198 311 349 7 36 79 88 145 157 160 170 175 167 153 135 117 128 139 159 164
198 174 158 189 196 206 157 267 221 229 242 221 209 176 184 183 172 174 174 177 176 177 181 184 182 180 179 180 188 194 254 339 4 32 118 90 146 153 158 172 177 164 141 120 105 109 111 133 138
Wind_Speed_850mb
20 22 20 7 5 7 7 12 5 9 6 5 4 11 15 13 14 10 12 30 24 33 27 36 41 33 26 24 23 23 22 22 22 21 21 21 21 21 18 22 26 24 21 20 20 23 23 25 27
20 19 10 6 6 1 10 8 11 10 12 28 13 12 4 9 15 6 27 27 26 30 30 30 36 33 28 25 25 25 24 24 25 26 26 25 24 24 22 26 30 31 28 23 21 23 25 25 26
20 13 5 6 5 9 9 10 10 15 55 19 7 13 5 7 14 9 19 24 28 31 27 30 34 33 30 26 26 24 25 27 28 31 31 31 26 27 34 28 34 32 30 28 27 26 25 25 27
14 5 7 6 13 13 11 12 11 23 47 5 15 7 10 17 9 16 23 26 27 23 24 30 31 30 30 26 24 22 24 26 30 33 32 30 33 35 39 36 37 35 36 36 34 31 35 31 30
16 3 3 4 11 12 14 29 30 14 12 29 15 10 10 17 22 19 23 28 27 23 25 27 30 31 26 21 18 19 19 21 26 30 28 35 37 39 40 39 38 37 40 38 37 36 36 32 37
7 4 2 8 10 10 12 35 21 10 11 26 7 6 14 23 31 28 28 27 25 18 23 31 34 34 29 23 19 19 18 19 26 26 31 33 35 39 44 45 45 45 43 44 43 42 40 41 42
10 7 8 8 10 12 12 4 10 2 11 14 19 6 13 27 29 34 31 34 30 28 27 35 36 36 35 30 22 21 20 24 28 27 28 29 31 38 44 45 48 51 52 48 45 47 46 45 44
12 9 6 11 8 17 14 8 14 5 13 25 9 8 22 36 26 38 39 45 38 37 37 40 40 40 37 34 27 23 24 28 31 29 28 29 33 32 34 36 33 33 38 40 43 47 46 49 48
16 4 12 15 13 16 9 4 7 5 16 17 33 44 53 63 53 45 52 55 51 51 48 47 45 43 38 35 30 27 28 32 32 30 29 31 30 28 25 22 26 27 30 31 28 34 39 47 50
16 11 22 22 16 13 8 3 33 11 33 31 52 56 52 60 49 52 65 67 64 60 57 55 50 48 43 37 33 30 32 32 31 31 29 30 27 27 23 23 22 22 25 27 32 35 36 35 44
17 27 39 28 51 15 16 30 22 19 26 50 42 73 76 62 49 56 65 70 64 60 59 57 54 51 47 38 33 31 33 29 29 27 26 27 27 26 23 21 20 20 20 25 29 35 30 36 40
9 36 58 56 46 28 23 31 44 47 60 69 70 78 81 69 55 59 69 74 69 66 63 58 55 54 49 39 33 31 30 27 23 19 20 24 25 23 23 23 20 21 21 24 23 24 29 30 35
17 25 39 51 53 55 46 38 41 59 92 78 73 78 80 71 61 69 72 69 71 70 69 62 58 55 48 40 34 29 25 21 18 17 19 21 23 25 27 27 26 21 22 26 24 23 24 27 30
18 41 49 40 59 65 45 39 39 73 75 70 72 76 81 77 68 64 75 78 80 74 76 66 60 53 47 39 32 24 18 15 17 19 21 23 24 25 28 29 29 25 23 23 23 25 24 26 30
21 12 16 27 40 20 42 24 37 92 64 61 72 80 82 77 65 67 77 74 75 85 78 67 62 56 48 38 28 20 13 15 19 23 25 28 30 28 27 28 28 28 26 24 21 21 24 26 31
6 6 6 9 11 15 24 23 41 66 57 70 67 65 69 73 72 72 71 77 83 89 79 65 61 56 45 36 25 17 14 14 18 23 26 30 32 30 27 27 25 26 27 23 23 23 26 25 30
4 22 20 13 17 9 15 20 34 42 25 47 63 72 69 74 74 76 70 73 89 87 74 61 61 54 43 32 25 20 17 15 20 24 26 30 30 27 26 25 21 25 25 23 25 23 26 27 27
13 10 12 19 4 8 19 26 38 69 38 50 56 70 81 80 85 72 60 71 82 74 66 57 57 49 39 32 27 22 14 17 24 27 29 28 26 24 24 23 22 25 23 22 25 24 26 26 22
10 25 32 9 6 13 19 16 30 48 26 37 57 68 80 83 73 53 47 52 64 61 59 62 58 46 40 32 25 20 14 20 23 27 30 24 22 24 25 23 21 24 22 22 23 25 29 29 23
25 27 32 16 7 12 20 26 32 31 35 40 58 73 73 61 45 41 35 44 60 61 68 64 49 40 33 25 20 15 16 21 25 29 25 20 18 21 25 22 20 18 17 21 23 27 33 31 27
33 40 32 20 9 11 13 23 27 24 27 38 51 45 44 46 37 33 37 47 55 65 71 55 41 35 27 21 15 11 14 19 23 21 13 13 18 18 17 17 17 14 14 13 14 20 32 33 30
39 32 30 22 7 13 10 12 20 18 33 15 42 45 45 37 37 34 37 40 53 68 59 44 38 32 23 16 11 9 13 18 17 16 10 12 13 7 4 9 11 10 9 11 15 19 25 28 29
26 20 18 17 14 4 7 8 11 9 19 27 22 50 48 38 35 29 34 43 60 60 48 40 35 27 17 13 10 6 14 16 16 14 12 10 9 3 6 8 10 9 8 10 15 21 26 24 22
14 9 8 7 2 16 25 14 9 12 20 13 11 18 27 21 24 30 36 51 61 51 44 39 33 21 13 12 9 5 14 12 15 13 14 11 9 8 10 12 9 8 7 11 15 21 22 22 19
15 15 2 6 1 10 12 15 26 19 17 18 23 31 11 23 35 40 54 67 61 53 44 38 30 18 13 12 8 5 12 10 15 17 16 8 3 13 15 14 12 10 12 13 13 18 20 20 20
31 20 13 11 7 10 14 15 15 25 29 42 45 32 22 35 39 47 62 68 58 49 42 34 27 18 14 14 8 2 9 11 14 16 12 2 9 15 19 18 11 12 13 11 9 14 20 16 20
16 21 19 4 3 1 7 15 15 11 15 7 1 17 34 40 44 52 65 62 54 45 38 33 24 20 17 13 9 3 6 11 12 15 13 6 12 17 22 19 12 10 10 8 8 13 15 11 17
22 22 14 12 13 8 10 10 10 6 14 5 8 16 34 42 46 53 64 59 49 39 34 32 22 17 19 12 9 5 4 11 11 12 13 8 12 19 21 20 15 9 8 7 9 9 9 10 17
10 13 6 14 10 10 2 12 14 17 15 16 17 35 48 51 53 57 63 57 45 38 38 33 26 23 20 14 12 4 3 9 8 7 5 6 11 17 18 20 16 9 8 8 8 10 11 11 13
34 20 14 15 19 7 8 11 9 19 11 12 18 33 36 43 52 57 63 58 49 43 41 34 29 24 18 15 11 8 4 6 4 5 6 6 14 17 16 14 15 13 9 10 11 13 14 12 13
Wind_Direction_850mb
144 143 138 138 43 64 254 254 258 279 279 331 159 173 193 166 166 209 197 168 184 180 193 198 206 209 216 229 235 245 263 272 278 277 279 282 278 277 263 283 288 284 267 252 257 268 271 262 255
143 147 128 105 104 8 261 247 239 240 286 315 259 219 207 245 217 231 162 185 176 179 185 194 203 208 218 225 231 246 262 271 269 267 275 280 268 261 260 284 284 284 274 270 253 248 262 267 261
152 150 115 106 145 208 232 220 233 289 317 272 219 240 231 232 224 220 204 192 182 178 189 197 202 209 216 222 232 252 273 275 275 273 274 275 257 263 259 277 283 277 267 266 270 272 266 267 270
159 172 78 103 239 258 234 268 305 320 329 232 217 245 233 228 228 222 200 192 183 177 187 199 203 207 214 221 236 261 274 281 283 280 279 268 266 266 265 278 275 265 266 264 258 251 256 262 264
169 119 75 252 250 258 255 266 286 287 282 302 231 247 235 245 233 228 215 198 191 190 193 202 205 211 210 218 239 259 275 289 294 287 273 266 268 270 267 270 264 266 264 261 259 259 259 252 257
135 110 56 235 230 244 258 266 267 255 286 328 237 209 257 257 238 230 221 205 195 210 202 207 207 213 215 217 234 252 259 290 303 293 273 271 269 269 267 265 263 264 258 258 261 254 254 254 251
148 109 232 256 260 275 224 269 201 271 331 333 296 238 278 286 253 228 225 205 207 211 219 214 213 214 217 224 239 253 268 288 301 291 274 265 266 272 273 271 265 258 254 256 256 255 252 251 250
192 123 259 243 216 263 201 204 178 100 302 323 342 276 287 305 286 248 220 207 213 217 223 223 217 215 220 225 240 255 277 290 296 289 275 272 277 275 278 272 268 265 263 251 253 257 257 252 249
187 130 239 239 187 245 173 329 278 295 284 294 288 290 297 298 289 236 208 207 215 220 223 224 221 217 221 227 242 257 277 290 291 282 275 274 278 280 281 276 272 265 263 258 256 260 258 246 246
184 191 223 216 208 247 256 224 300 309 304 285 294 302 304 308 271 231 211 214 219 223 224 223 222 220 219 227 240 259 280 290 284 278 274 270 273 287 279 287 278 271 265 258 249 258 256 243 243
204 225 231 264 245 267 290 296 304 280 285 285 291 301 305 301 276 236 232 227 236 231 226 226 221 220 223 229 242 263 278 277 272 273 276 273 273 287 275 283 276 273 269 262 258 258 260 242 239
218 233 238 248 260 274 265 288 284 287 273 282 291 293 295 290 274 250 240 234 233 232 232 228 221 221 224 230 243 261 272 271 275 278 280 276 278 276 271 272 275 269 270 271 272 264 255 246 237
230 240 247 254 268 269 275 260 267 280 280 285 289 291 292 289 276 261 254 245 236 235 233 229 223 225 225 234 243 265 269 276 279 281 286 288 283 275 268 268 265 273 272 265 261 262 255 244 231
201 237 253 268 264 263 270 276 276 272 274 281 287 290 294 293 286 270 247 242 237 238 236 230 226 227 227 232 249 261 262 278 279 289 286 283 286 281 271 266 265 260 272 265 258 260 250 239 230
243 233 263 244 254 253 266 270 255 268 281 282 282 287 288 289 284 263 256 252 247 238 233 231 228 227 224 232 247 249 257 281 289 291 287 281 281 281 274 269 261 255 262 261 256 258 245 239 225
192 178 241 241 206 250 181 267 269 272 271 274 280 287 288 289 286 281 270 255 245 238 232 229 227 225 220 232 240 234 250 276 302 296 291 283 278 275 274 268 263 253 255 257 256 262 242 236 224
255 254 250 292 231 239 177 277 267 280 279 276 280 286 287 289 290 295 279 260 246 237 231 227 224 216 219 225 225 228 244 282 304 306 298 285 273 274 273 274 267 247 248 254 257 255 238 230 226
203 236 235 235 260 227 258 258 277 277 270 267 281 286 287 291 292 300 287 261 244 236 229 225 210 205 213 218 219 229 258 289 302 310 305 284 271 275 270 276 262 241 248 254 254 248 231 221 220
206 229 242 248 202 243 244 256 265 281 267 269 278 280 290 293 294 292 285 260 242 232 218 205 198 204 211 215 221 232 269 299 307 309 304 284 270 275 276 275 256 238 251 258 249 238 221 208 206
211 237 248 264 198 228 271 273 273 278 273 264 273 279 279 285 284 283 271 241 234 220 200 194 196 208 211 210 226 250 281 308 312 314 304 282 279 285 274 265 240 241 251 254 247 233 205 197 196
214 221 236 238 307 262 311 291 279 280 278 270 272 277 290 275 272 269 238 223 214 198 189 186 196 204 201 208 229 251 294 318 319 320 307 293 295 290 270 234 223 237 247 251 223 202 189 195 194
222 215 236 253 255 255 132 284 290 300 296 278 285 296 287 285 272 242 228 210 195 184 178 183 194 194 196 211 220 259 314 337 334 333 323 316 316 302 196 190 210 216 218 214 190 181 184 191 192
224 178 211 225 231 208 240 278 266 268 279 281 271 286 279 273 261 240 210 191 176 174 175 183 187 185 194 209 221 277 338 334 338 332 325 305 311 215 205 186 178 183 196 181 174 176 179 187 204
169 143 80 31 140 258 255 204 245 231 233 261 266 275 297 248 204 194 182 169 166 171 177 181 183 178 193 206 211 303 342 340 338 339 327 297 289 205 178 160 148 152 171 171 178 178 184 187 200
131 98 258 335 242 225 192 187 244 252 235 233 256 275 293 195 171 171 164 166 169 175 180 181 179 182 191 193 202 308 344 344 337 339 331 300 205 184 171 153 135 133 132 127 144 170 182 201 208
184 161 155 199 214 249 161 204 245 224 232 246 255 260 198 189 169 166 168 169 172 180 179 179 178 183 185 176 196 306 352 354 340 343 351 1 160 171 168 157 144 140 115 116 140 177 184 187 211
176 201 175 63 173 312 225 276 305 227 261 280 330 187 183 179 172 168 170 172 176 179 179 178 176 178 175 174 202 201 18 359 356 11 21 87 143 162 168 161 159 152 137 118 132 165 178 213 198
174 145 178 194 196 231 274 272 225 220 227 291 217 194 185 175 172 170 173 175 178 178 176 174 176 176 171 182 176 123 341 357 16 37 50 81 129 156 162 168 167 155 149 120 136 155 179 182 183
152 167 145 164 159 163 298 262 221 224 216 226 215 184 189 175 173 171 173 177 176 174 178 178 179 176 175 179 174 198 311 349 7 36 79 88 145 157 160 170 175 167 153 135 117 128 139 159 164
198 174 158 189 196 206 157 267 221 229 242 221 209 176 184 183 172 174 174 177 176 177 181 184 182 180 179 180 188 194 254 339 4 32 118 90 146 153 158 172 177 164 141 120 105 109 111 133 138